Nebraska City, NE

3:01 AM CST on January 19, 2017 (GMT -0600)
Nebraska City Municipal

Weather History for KAFK - February, 2014

Change the Weather History Date:

Saturday, February 22, 2014

  Actual Average (KSDA) Record (KSDA)
Temperature  
Mean Temperature 34 °F -  
Max Temperature 40 °F 44 °F 70 °F (1977)
Min Temperature 29 °F 23 °F -6 °F (1960)
Degree Days  
Heating Degree Days 30    
Moisture  
Dew Point 26 °F    
Average Humidity 73    
Maximum Humidity 90    
Minimum Humidity 58    
Precipitation  
Precipitation 0.00 in - - ()
Sea Level Pressure  
Sea Level Pressure 30.00 in    
Wind  
Wind Speed 7 mph (NE)    
Max Wind Speed 18 mph    
Max Gust Speed 23 mph    
Visibility 10 miles    
Events      
Averages and records for this station are not official NWS values.
T = Trace of Precipitation, MM = Missing Value Source: NWS Daily Summary

Daily Weather History Graph

Daily Weather History Graph

Search for Another Location

Airport or City:

Trip Planner

Search our weather history database for the weather conditions in past years. The results will help you decide how hot, cold, wet, or windy it might be!

Date:

Astronomy

Feb. 22, 2014 Rise Set
Actual Time 7:07 AM CST 6:06 PM CST
Civil Twilight 6:39 AM CST 6:34 PM CST
Nautical Twilight 6:08 AM CST 7:06 PM CST
Astronomical Twilight 5:36 AM CST 7:37 PM CST
Moon 1:04 AM CST (2/22) 11:17 AM CST (2/22)
Length of Visible Light 11h 54m
Length of Day
10h 59m
Waning Gibbous, 50% of the Moon is Illuminated
Feb 22
Waning Gibbous
Mar 1
New
Mar 8
First Quarter
Mar 16
Full
Mar 23
Last Quarter

Hourly Weather History & Observations

Time (CST) Temp. Windchill Dew Point Humidity Pressure Visibility Wind Dir Wind Speed Gust Speed Precip Events Conditions
12:15 AM 36.7 °F 32.9 °F 27.3 °F 69% 29.89 in 10.0 mi WSW 4.6 mph - N/A   Scattered Clouds
12:35 AM 37.4 °F 34.9 °F 27.0 °F 66% 29.88 in 10.0 mi SW 3.5 mph - N/A   Scattered Clouds
12:55 AM 36.5 °F - 26.6 °F 67% 29.88 in 10.0 mi Calm Calm - N/A   Scattered Clouds
1:15 AM 33.1 °F - 27.3 °F 79% 29.88 in 10.0 mi Calm Calm - N/A   Clear
1:35 AM 32.2 °F - 27.1 °F 82% 29.89 in 10.0 mi Calm Calm - N/A   Scattered Clouds
1:55 AM 32.4 °F - 28.2 °F 85% 29.89 in 10.0 mi Calm Calm - N/A   Overcast
2:15 AM 32.4 °F - 28.4 °F 85% 29.88 in 10.0 mi Calm Calm - N/A   Overcast
2:35 AM 33.8 °F 30.8 °F 28.4 °F 81% 29.89 in 10.0 mi ENE 3.5 mph - N/A   Overcast
2:55 AM 32.0 °F 28.7 °F 28.8 °F 88% 29.89 in 10.0 mi North 3.5 mph - N/A   Overcast
3:15 AM 32.0 °F 28.7 °F 28.0 °F 85% 29.89 in 10.0 mi NNE 3.5 mph - N/A   Mostly Cloudy
3:35 AM 32.0 °F 25.6 °F 28.2 °F 86% 29.88 in 10.0 mi NNE 6.9 mph - N/A   Mostly Cloudy
3:55 AM 31.6 °F 24.4 °F 27.9 °F 86% 29.88 in 10.0 mi NE 8.1 mph - N/A   Overcast
4:15 AM 32.5 °F 28.1 °F 28.4 °F 85% 29.89 in 10.0 mi NE 4.6 mph - N/A   Overcast
4:35 AM 32.4 °F 27.9 °F 28.4 °F 85% 29.88 in 10.0 mi NNE 4.6 mph - N/A   Overcast
4:55 AM 32.0 °F 27.5 °F 28.2 °F 86% 29.89 in 10.0 mi NNE 4.6 mph - N/A   Mostly Cloudy
5:15 AM 32.4 °F 29.1 °F 28.4 °F 85% 29.90 in 10.0 mi North 3.5 mph - N/A   Mostly Cloudy
5:35 AM 32.0 °F - 28.6 °F 87% 29.92 in 10.0 mi Calm Calm - N/A   Overcast
5:55 AM 32.5 °F - 28.4 °F 85% 29.92 in 10.0 mi Calm Calm - N/A   Overcast
6:15 AM 32.5 °F - 28.2 °F 84% 29.92 in 10.0 mi Calm Calm - N/A   Mostly Cloudy
6:35 AM 32.2 °F - 28.4 °F 86% 29.92 in 10.0 mi Calm Calm - N/A   Mostly Cloudy
6:55 AM 31.8 °F 28.5 °F 28.9 °F 89% 29.92 in 10.0 mi South 3.5 mph - N/A   Overcast
7:15 AM 33.4 °F - 28.0 °F 81% 29.93 in 10.0 mi Calm Calm - N/A   Overcast
7:35 AM 32.2 °F 27.7 °F 28.9 °F 88% 29.94 in 10.0 mi East 4.6 mph - N/A   Overcast
7:55 AM 32.0 °F 21.2 °F 28.9 °F 88% 29.95 in 10.0 mi NNE 16.1 mph - N/A   Overcast
8:15 AM 32.0 °F 24.8 °F 29.3 °F 90% 29.95 in 10.0 mi North 8.1 mph - N/A   Scattered Clouds
8:35 AM 32.9 °F 24.1 °F 29.3 °F 87% 29.96 in 10.0 mi NNE 11.5 mph - N/A   Scattered Clouds
8:55 AM 32.9 °F 24.7 °F 28.6 °F 84% 29.97 in 10.0 mi NNE 10.4 mph - N/A   Scattered Clouds
9:15 AM 33.6 °F 25.0 °F 28.4 °F 81% 29.99 in 10.0 mi NNE 11.5 mph - N/A   Mostly Cloudy
9:35 AM 34.9 °F 26.6 °F 28.9 °F 79% 29.99 in 10.0 mi NNE 11.5 mph - N/A   Scattered Clouds
9:55 AM 35.8 °F 26.9 °F 28.4 °F 75% 29.99 in 10.0 mi North 13.8 mph - N/A   Scattered Clouds
10:15 AM 35.4 °F 26.0 °F 27.7 °F 73% 30.00 in 10.0 mi NNE 15.0 mph - N/A   Mostly Cloudy
10:35 AM 35.2 °F 25.4 °F 27.9 °F 74% 30.00 in 10.0 mi NE 16.1 mph 23.0 mph N/A   Scattered Clouds
10:55 AM 35.4 °F 25.3 °F 26.1 °F 69% 30.01 in 10.0 mi NNE 17.3 mph - N/A   Clear
11:15 AM 35.1 °F 24.8 °F 25.2 °F 67% 30.01 in 10.0 mi NE 17.3 mph - N/A   Clear
11:35 AM 35.8 °F 26.1 °F 24.4 °F 63% 30.01 in 10.0 mi NE 16.1 mph - N/A   Clear
11:55 AM 36.3 °F 26.8 °F 24.1 °F 61% 30.01 in 10.0 mi NE 16.1 mph - N/A   Clear
12:15 PM 36.1 °F 27.7 °F 23.5 °F 60% 30.01 in 10.0 mi NE 12.7 mph 21.9 mph N/A   Clear
12:35 PM 37.2 °F 27.9 °F 23.7 °F 58% 30.01 in 10.0 mi NE 16.1 mph - N/A   Clear
12:55 PM 38.8 °F 30.8 °F 25.7 °F 59% 30.00 in 10.0 mi NE 13.8 mph 18.4 mph N/A   Clear
1:15 PM 39.2 °F 30.8 °F 26.2 °F 60% 30.00 in 10.0 mi ENE 15.0 mph - N/A   Clear
1:35 PM 40.1 °F 33.6 °F 27.5 °F 61% 29.99 in 10.0 mi NNE 10.4 mph 19.6 mph N/A   Clear
1:55 PM 40.3 °F 33.4 °F 27.9 °F 61% 29.99 in 10.0 mi NE 11.5 mph 16.1 mph N/A   Clear
2:15 PM 40.3 °F 32.2 °F 27.5 °F 60% 29.99 in 10.0 mi NE 15.0 mph 19.6 mph N/A   Clear
2:35 PM 40.3 °F 31.6 °F 27.5 °F 60% 29.99 in 10.0 mi NNE 17.3 mph 20.7 mph N/A   Clear
2:55 PM 40.1 °F 31.0 °F 26.6 °F 59% 29.99 in 10.0 mi NNE 18.4 mph 21.9 mph N/A   Clear
3:15 PM 39.7 °F 31.9 °F 26.2 °F 59% 29.99 in 10.0 mi NE 13.8 mph 18.4 mph N/A   Clear
3:35 PM 39.6 °F 30.6 °F 26.6 °F 60% 30.00 in 10.0 mi NNE 17.3 mph 23.0 mph N/A   Clear
3:55 PM 39.2 °F 31.2 °F 27.1 °F 62% 30.01 in 10.0 mi NE 13.8 mph 19.6 mph N/A   Clear
4:15 PM 38.5 °F 30.3 °F 25.2 °F 59% 30.01 in 10.0 mi NE 13.8 mph - N/A   Clear
4:35 PM 37.9 °F 28.9 °F 25.2 °F 60% 30.01 in 10.0 mi ENE 16.1 mph - N/A   Clear
4:55 PM 37.4 °F 28.9 °F 24.3 °F 59% 30.02 in 10.0 mi ENE 13.8 mph - N/A   Clear
5:15 PM 36.7 °F 29.9 °F 23.7 °F 59% 30.03 in 10.0 mi ENE 9.2 mph - N/A   Clear
5:35 PM 35.2 °F 28.1 °F 23.7 °F 63% 30.03 in 10.0 mi NE 9.2 mph - N/A   Clear
5:55 PM 34.2 °F 27.5 °F 23.5 °F 65% 30.04 in 10.0 mi ENE 8.1 mph - N/A   Clear
6:15 PM 32.9 °F 25.3 °F 24.1 °F 70% 30.05 in 10.0 mi ENE 9.2 mph - N/A   Clear
6:35 PM 32.4 °F 25.3 °F 23.4 °F 69% 30.06 in 10.0 mi NE 8.1 mph - N/A   Clear
6:55 PM 31.8 °F 23.9 °F 23.5 °F 71% 30.07 in 10.0 mi NE 9.2 mph - N/A   Clear
7:15 PM 31.8 °F 23.3 °F 22.8 °F 69% 30.08 in 10.0 mi NE 10.4 mph - N/A   Clear
7:35 PM 30.9 °F 23.5 °F 22.8 °F 72% 30.08 in 10.0 mi NE 8.1 mph - N/A   Clear
7:55 PM 30.9 °F 22.8 °F 23.0 °F 72% 30.08 in 10.0 mi NE 9.2 mph - N/A   Scattered Clouds
8:15 PM 30.9 °F 22.8 °F 22.3 °F 70% 30.08 in 10.0 mi NE 9.2 mph - N/A   Clear
8:35 PM 30.2 °F 22.6 °F 22.1 °F 72% 30.09 in 10.0 mi NE 8.1 mph - N/A   Scattered Clouds
8:55 PM 29.8 °F 21.5 °F 21.9 °F 72% 30.10 in 10.0 mi NE 9.2 mph - N/A   Scattered Clouds
9:15 PM 29.8 °F 23.0 °F 22.5 °F 74% 30.12 in 10.0 mi NNE 6.9 mph - N/A   Scattered Clouds
9:35 PM 29.7 °F 22.8 °F 22.1 °F 73% 30.12 in 10.0 mi NE 6.9 mph - N/A   Overcast
9:55 PM 29.7 °F 24.7 °F 21.2 °F 71% 30.14 in 10.0 mi NE 4.6 mph - N/A   Overcast
10:15 PM 29.5 °F 25.9 °F 21.7 °F 73% 30.15 in 10.0 mi NE 3.5 mph - N/A   Overcast
10:35 PM 29.3 °F 25.6 °F 22.1 °F 75% 30.15 in 10.0 mi NNE 3.5 mph - N/A   Overcast
10:55 PM 29.3 °F 24.3 °F 22.5 °F 76% 30.16 in 10.0 mi North 4.6 mph - N/A   Overcast
11:15 PM 29.3 °F 23.2 °F 21.9 °F 74% 30.16 in 10.0 mi NNE 5.8 mph - N/A   Overcast
11:35 PM 29.3 °F 22.3 °F 20.5 °F 70% 30.18 in 10.0 mi NNE 6.9 mph - N/A   Overcast
11:55 PM 29.3 °F 21.5 °F 21.2 °F 72% 30.18 in 10.0 mi NNE 8.1 mph - N/A   Overcast